Weather History for Montrose, CO

Change the Weather History Date:

Monday, January 28, 2013

  Actual Average Record
Temperature  
Mean Temperature 35 °F 28 °F  
Max Temperature 44 °F 40 °F 50 °F (1998)
Min Temperature 25 °F 17 °F 9 °F (2009)
Degree Days  
Heating Degree Days 30 37  
Month to date heating degree days 1321 1088  
Since 1 July heating degree days 3598 3696  
Cooling Degree Days 0 0  
Month to date cooling degree days 0 0  
Year to date cooling degree days 0 0  
Moisture  
Dew Point 29 °F    
Average Humidity 76    
Maximum Humidity 100    
Minimum Humidity 52    
Precipitation  
Precipitation 0.09 in 0.01 in 0.09 in (2013)
Month to date precipitation 0.57 0.59  
Year to date precipitation 0.57 0.59  
Sea Level Pressure  
Sea Level Pressure 29.76 in    
Wind  
Wind Speed 7 mph (NNW)    
Max Wind Speed 21 mph    
Max Gust Speed 25 mph    
Visibility 6 miles    
Events Fog , Rain , Snow    
T = Trace of Precipitation, MM = Missing Value Source: NWS Daily Summary

Daily Weather History Graph

Daily Weather History Graph

Search for Another Location

Airport:

Trip Planner

Search our weather history database for the weather conditions in past years. The results will help you decide how hot, cold, wet, or windy it might be!

Date:

Astronomy

Jan. 28, 2013 Rise Set
Actual Time 7:20 AM MST 5:29 PM MST
Civil Twilight 6:51 AM MST 5:57 PM MST
Nautical Twilight 6:20 AM MST 6:29 PM MST
Astronomical Twilight 5:48 AM MST 7:01 PM MST
Moon 7:25 PM MST (1/28) 7:49 AM MST (1/28)
Length of Visible Light 11h 05m
Length of Day
10h 09m
Full, 97% of the Moon is Illuminated
Jan 28
Full
Feb 3
Last Quarter
Feb 10
New
Feb 17
First Quarter
Feb 25
Full

Hourly Weather History & Observations

Time (MST) Temp. Windchill Dew Point Humidity Pressure Visibility Wind Dir Wind Speed Gust Speed Precip Events Conditions
12:53 AM 42.1 °F 36.6 °F 30.0 °F 62% 29.72 in 10.0 mi ENE 9.2 mph - N/A   Partly Cloudy
1:53 AM 37.9 °F 32.7 °F 30.0 °F 73% 29.72 in 10.0 mi East 6.9 mph - N/A   Clear
2:53 AM 39.0 °F 35.7 °F 30.0 °F 70% 29.71 in 10.0 mi Variable 4.6 mph - N/A   Partly Cloudy
3:53 AM 39.0 °F 34.0 °F 32.0 °F 76% 29.67 in 10.0 mi South 6.9 mph - 0.00 in Rain Light Rain
4:53 AM 37.0 °F 31.6 °F 32.0 °F 82% 29.67 in 10.0 mi ESE 6.9 mph - 0.00 in Rain Light Rain
5:53 AM 39.9 °F 33.9 °F 30.9 °F 70% 29.65 in 10.0 mi South 9.2 mph - 0.00 in   Overcast
6:53 AM 36.0 °F 30.3 °F 33.1 °F 89% 29.68 in 10.0 mi South 6.9 mph - 0.00 in Rain Light Rain
7:05 AM 37.4 °F 34.9 °F 33.8 °F 87% 29.74 in 10.0 mi East 3.5 mph - 0.00 in Rain Light Rain
7:24 AM 35.6 °F 30.7 °F 33.8 °F 93% 29.74 in 10.0 mi East 5.8 mph - 0.01 in Rain Light Rain
7:53 AM 35.1 °F 32.2 °F 33.1 °F 92% 29.69 in 10.0 mi NNE 3.5 mph - 0.01 in Rain Light Rain
8:10 AM 33.8 °F 27.7 °F 33.8 °F 100% 29.76 in 4.0 mi NNW 6.9 mph - 0.00 in Snow Light Snow
8:16 AM 33.8 °F 26.4 °F 32.0 °F 93% 29.76 in 1.8 mi NW 9.2 mph - 0.00 in Snow Light Snow
8:25 AM 33.8 °F 27.7 °F 32.0 °F 93% 29.77 in 1.0 mi NW 6.9 mph - 0.01 in Snow Light Snow
8:29 AM 32.0 °F 27.5 °F 32.0 °F 100% 29.77 in 1.0 mi NW 4.6 mph - 0.01 in Snow Light Snow
8:48 AM 33.8 °F 29.6 °F 32.0 °F 93% 29.75 in 1.8 mi North 4.6 mph - 0.02 in Snow Light Snow
8:53 AM 33.1 °F 30.0 °F 32.0 °F 96% 29.72 in 3.0 mi NNE 3.5 mph - 0.02 in Snow Light Snow
9:08 AM 32.0 °F 27.5 °F 32.0 °F 100% 29.76 in 1.2 mi NNE 4.6 mph - 0.00 in Snow Light Snow
9:22 AM 33.8 °F 27.0 °F 33.8 °F 100% 29.77 in 2.0 mi North 8.1 mph - 0.01 in Snow Light Snow
9:33 AM 33.8 °F 27.0 °F 33.8 °F 100% 29.76 in 3.0 mi NNE 8.1 mph - 0.01 in Snow Light Snow
9:37 AM 33.8 °F 26.4 °F 32.0 °F 93% 29.77 in 2.0 mi North 9.2 mph - 0.01 in Snow Light Snow
9:39 AM 33.8 °F 27.0 °F 32.0 °F 93% 29.77 in 1.5 mi North 8.1 mph - 0.01 in Snow Light Snow
9:43 AM 33.8 °F 27.0 °F 32.0 °F 93% 29.77 in 1.0 mi North 8.1 mph - 0.01 in Snow Light Snow
9:51 AM 33.8 °F 26.4 °F 32.0 °F 93% 29.78 in 0.8 mi North 9.2 mph - 0.02 in Snow Light Snow
9:53 AM 32.0 °F 23.6 °F 32.0 °F 100% 29.74 in 0.8 mi NNW 10.4 mph - 0.02 in Snow Light Snow
10:04 AM 32.0 °F 26.4 °F 32.0 °F 100% 29.79 in 0.5 mi North 5.8 mph - 0.00 in Fog , Snow Snow
10:21 AM 33.8 °F 28.6 °F 33.8 °F 100% 29.78 in 1.8 mi North 5.8 mph - 0.01 in Snow Light Snow
10:31 AM 33.8 °F 28.6 °F 32.0 °F 93% 29.77 in 9.0 mi NNE 5.8 mph - 0.01 in   Mostly Cloudy
10:43 AM 33.8 °F 28.6 °F 32.0 °F 93% 29.78 in 10.0 mi NNE 5.8 mph - 0.01 in   Mostly Cloudy
10:53 AM 35.1 °F 30.1 °F 32.0 °F 89% 29.73 in 10.0 mi NNE 5.8 mph - 0.02 in   Mostly Cloudy
11:11 AM 33.8 °F 28.6 °F 30.2 °F 87% 29.79 in 2.5 mi NNW 5.8 mph - 0.00 in Snow Light Snow
11:18 AM 33.8 °F 27.7 °F 32.0 °F 93% 29.79 in 1.0 mi NNW 6.9 mph - 0.00 in Snow Light Snow
11:29 AM 33.8 °F 28.6 °F 32.0 °F 93% 29.79 in 1.8 mi NW 5.8 mph - 0.00 in Snow Light Snow
11:32 AM 33.8 °F 27.7 °F 32.0 °F 93% 29.78 in 3.0 mi NNW 6.9 mph - 0.01 in Snow Light Snow
11:53 AM 35.1 °F 29.3 °F 32.0 °F 89% 29.71 in 9.0 mi NNE 6.9 mph - 0.01 in Snow Light Snow
12:53 PM 35.1 °F - 30.0 °F 82% 29.70 in 10.0 mi Calm Calm - 0.01 in   Overcast
1:04 PM 35.6 °F 31.7 °F 30.2 °F 81% 29.77 in 2.5 mi SW 4.6 mph - 0.00 in Snow Light Snow
1:09 PM 35.6 °F 29.9 °F 30.2 °F 81% 29.77 in 3.0 mi West 6.9 mph - 0.00 in Snow Light Snow
1:16 PM 35.6 °F - 30.2 °F 81% 29.77 in 7.0 mi Calm Calm - 0.00 in Snow Light Snow
1:24 PM 35.6 °F 28.0 °F 28.4 °F 75% 29.78 in 9.0 mi WNW 10.4 mph - 0.00 in   Overcast
1:49 PM 33.8 °F 27.7 °F 28.4 °F 81% 29.79 in 2.5 mi West 6.9 mph - 0.00 in Snow Light Snow
1:53 PM 33.1 °F 28.7 °F 28.9 °F 85% 29.74 in 2.0 mi WNW 4.6 mph - 0.00 in Snow Light Snow
1:55 PM 33.8 °F 28.6 °F 28.4 °F 81% 29.78 in 1.5 mi West 5.8 mph - 0.00 in Snow Light Snow
2:04 PM 33.8 °F 28.6 °F 30.2 °F 87% 29.78 in 2.0 mi Variable 5.8 mph - 0.00 in Snow Light Snow
2:12 PM 33.8 °F 28.6 °F 30.2 °F 87% 29.77 in 9.0 mi Variable 5.8 mph - 0.00 in   Overcast
2:26 PM 33.8 °F 27.7 °F 24.8 °F 70% 29.76 in 10.0 mi SSE 6.9 mph - 0.00 in   Mostly Cloudy
2:53 PM 36.0 °F 29.0 °F 26.1 °F 67% 29.71 in 10.0 mi SE 9.2 mph 16.1 mph 0.00 in   Overcast
3:53 PM 37.0 °F 31.6 °F 21.9 °F 54% 29.71 in 10.0 mi West 6.9 mph 24.2 mph N/A   Mostly Cloudy
4:53 PM 34.0 °F 28.8 °F 24.1 °F 67% 29.71 in 10.0 mi South 5.8 mph - N/A   Partly Cloudy
5:53 PM 32.0 °F 25.6 °F 25.0 °F 75% 29.70 in 10.0 mi SE 6.9 mph - N/A   Clear
6:41 PM 30.2 °F 17.4 °F 26.6 °F 86% 29.76 in 10.0 mi NW 20.7 mph - N/A   Mostly Cloudy
6:53 PM 30.0 °F 20.0 °F 25.0 °F 82% 29.75 in 10.0 mi NW 12.7 mph 24.2 mph N/A   Overcast
7:18 PM 26.6 °F 15.2 °F 26.6 °F 100% 29.79 in 5.0 mi NW 13.8 mph - 0.00 in Snow Light Snow
7:25 PM 26.6 °F 15.2 °F 26.6 °F 100% 29.79 in 1.8 mi WNW 13.8 mph - 0.00 in Snow Light Snow
7:35 PM 26.6 °F 14.7 °F 24.8 °F 93% 29.80 in 1.5 mi WNW 15.0 mph - 0.00 in Snow Light Snow
7:49 PM 24.8 °F 12.4 °F 24.8 °F 100% 29.80 in 1.0 mi NW 15.0 mph - 0.00 in Snow Light Snow
7:53 PM 25.0 °F 12.6 °F 24.1 °F 96% 29.80 in 0.8 mi NW 15.0 mph - 0.00 in Snow Light Snow
8:00 PM 24.8 °F 11.1 °F 24.8 °F 100% 29.80 in 1.0 mi WNW 18.4 mph - 0.00 in Snow Light Snow
8:05 PM 24.8 °F 14.0 °F 24.8 °F 100% 29.80 in 1.8 mi WNW 11.5 mph - 0.00 in Snow Light Snow
8:08 PM 24.8 °F 13.4 °F 24.8 °F 100% 29.81 in 3.0 mi WNW 12.7 mph - 0.00 in Snow Light Snow
8:17 PM 24.8 °F 12.9 °F 23.0 °F 93% 29.81 in 8.0 mi WNW 13.8 mph - 0.00 in Snow Light Snow
8:53 PM 25.0 °F 15.5 °F 23.0 °F 92% 29.83 in 10.0 mi NW 9.2 mph - 0.00 in   Overcast
9:35 PM 24.8 °F 17.9 °F 21.2 °F 86% 29.82 in 3.0 mi NW 5.8 mph - 0.00 in Snow Light Snow
9:53 PM 25.0 °F 19.3 °F 21.9 °F 88% 29.83 in 9.0 mi NNW 4.6 mph - 0.00 in Snow Light Snow
10:53 PM 25.0 °F 17.1 °F 19.9 °F 81% 29.83 in 10.0 mi WNW 6.9 mph - N/A   Overcast
11:53 PM 25.0 °F - 21.0 °F 85% 29.83 in 10.0 mi Calm Calm - 0.00 in Snow Light Snow